Yellow Mule RAWS (NWS)

Elevation
9200ft
Aggregated by Synoptic Data
Date/Time Wind Direction Wind Speed knots Wind Gust knots RH % Accumulated Precip Inches Air Temp Fahrenheit
2024-07-24 09:04 4 7 39 7.74 67
2024-07-24 08:04 5 10 38 7.74 64
2024-07-24 07:04 8 11 36 7.74 62
2024-07-24 06:04 8 12 36 7.74 61
2024-07-24 05:04 9 11 37 7.74 61
2024-07-24 04:04 5 14 36 7.74 60
2024-07-24 03:04 9 13 32 7.74 63
2024-07-24 02:04 6 9 30 7.74 62
2024-07-24 01:04 7 10 28 7.74 64
2024-07-24 00:04 4 5 27 7.74 63
2024-07-23 23:04 4 5 24 7.74 65
2024-07-23 22:04 4 7 27 7.74 64
2024-07-23 21:04 3 10 27 7.74 65
2024-07-23 20:04 4 9 26 7.74 68
2024-07-23 19:04 6 12 22 7.74 73
2024-07-23 18:04 7 15 21 7.74 74
2024-07-23 17:04 8 14 21 7.74 74
2024-07-23 16:04 7 18 20 7.74 74
2024-07-23 15:04 4 10 35 7.74 71
2024-07-23 14:04 4 13 32 7.74 69
2024-07-23 13:04 3 15 32 7.74 71
2024-07-23 12:04 5 17 34 7.74 70
2024-07-23 11:04 4 10 35 7.74 72
2024-07-23 10:04 3 8 38 7.74 73
2024-07-23 09:04 3 8 40 7.74 65
2024-07-23 08:04 6 9 46 7.74 60
2024-07-23 07:04 8 10 43 7.74 59
2024-07-23 06:04 9 10 43 7.74 58
2024-07-23 05:04 8 10 44 7.74 56
2024-07-23 04:04 6 8 39 7.74 58
2024-07-23 03:04 2 4 38 7.74 58
2024-07-23 02:04 3 5 36 7.74 59
2024-07-23 01:04 3 3 36 7.74 59
2024-07-23 00:04 2 7 44 7.74 55
2024-07-22 23:04 3 6 35 7.74 60
2024-07-22 22:04 6 9 44 7.74 57
2024-07-22 21:04 3 12 43 7.74 58
2024-07-22 20:04 5 19 45 7.74 58
2024-07-22 19:04 8 16 59 7.73 56
2024-07-22 18:04 4 25 47 7.73 60
2024-07-22 17:04 21 29 50 7.73 60
2024-07-22 16:04 3 10 29 7.73 69
2024-07-22 15:04 3 10 32 7.73 71
2024-07-22 14:04 3 11 30 7.73 71
2024-07-22 13:04 3 11 39 7.73 68
2024-07-22 12:04 5 10 38 7.73 72
2024-07-22 11:04 4 7 38 7.73 69
2024-07-22 10:04 4 7 42 7.73 66
2024-07-22 09:04 4 7 46 7.73 61